| time (UTC) | temp F | wind direction | speed knots | gust knots | rain 1hr in | rain 24hr in | rain mn in | humidity % | barometer mb |
| 20260502194131 | 90 | 151 | 7.0 | 21.7 | 0.00 | 0.00 | 0.00 | 18 | 966.6 |
| 20260502193636 | 90 | 157 | 1.7 | 27.8 | 0.00 | 0.00 | 0.00 | 19 | 966.5 |
| 20260502193140 | 90 | 178 | 10.4 | 27.8 | 0.00 | 0.00 | 0.00 | 20 | 966.6 |
| 20260502192638 | 89 | 140 | 6.1 | 26.9 | 0.00 | 0.00 | 0.00 | 20 | 966.7 |
| 20260502192127 | 89 | 169 | 10.4 | 26.9 | 0.00 | 0.00 | 0.00 | 21 | 966.9 |
| 20260502191631 | 89 | 150 | 5.2 | 23.5 | 0.00 | 0.00 | 0.00 | 21 | 966.8 |
| 20260502191135 | 89 | 177 | 12.2 | 23.5 | 0.00 | 0.00 | 0.00 | 20 | 966.9 |
| 20260502190656 | 89 | 148 | 13.9 | 25.2 | 0.00 | 0.00 | 0.00 | 21 | 966.9 |
| 20260502190133 | 89 | 175 | 12.2 | 25.2 | 0.00 | 0.00 | 0.00 | 21 | 967.1 |
| 20260502185659 | 89 | 159 | 5.2 | 28.7 | 0.00 | 0.00 | 0.00 | 21 | 967.1 |
| 20260502185142 | 89 | 173 | 11.3 | 33.0 | 0.00 | 0.00 | 0.00 | 21 | 967.2 |
| 20260502184627 | 88 | 319 | 5.2 | 26.9 | 0.00 | 0.00 | 0.00 | 22 | 967.4 |
| 20260502184130 | 88 | 192 | 9.6 | 19.1 | 0.00 | 0.00 | 0.00 | 22 | 967.4 |
| 20260502183654 | 88 | 154 | 4.3 | 22.6 | 0.00 | 0.00 | 0.00 | 22 | 967.6 |
| 20260502183137 | 88 | 151 | 12.2 | 32.2 | 0.00 | 0.00 | 0.00 | 23 | 967.6 |
| 20260502182703 | 88 | 169 | 13.0 | 32.2 | 0.00 | 0.00 | 0.00 | 23 | 967.6 |
| 20260502182139 | 88 | 173 | 10.4 | 18.2 | 0.00 | 0.00 | 0.00 | 23 | 967.7 |
| 20260502181643 | 87 | 167 | 7.8 | 19.1 | 0.00 | 0.00 | 0.00 | 22 | 967.7 |
| 20260502181128 | 87 | 177 | 9.6 | 21.7 | 0.00 | 0.00 | 0.00 | 22 | 967.9 |
| 20260502180632 | 87 | 155 | 12.2 | 36.5 | 0.00 | 0.00 | 0.00 | 22 | 968.0 |
| 20260502180130 | 88 | 166 | 16.5 | 36.5 | 0.00 | 0.00 | 0.00 | 22 | 968.0 |
| 20260502170149 | 86 | 190 | 10.4 | 25.2 | 0.00 | 0.00 | 0.00 | 24 | 968.2 |
| 20260502164201 | 86 | 321 | 9.6 | 20.0 | 0.00 | 0.00 | 0.00 | 21 | 968.2 |
| 20260502163644 | 86 | 167 | 6.1 | 19.1 | 0.00 | 0.00 | 0.00 | 20 | 968.2 |
| 20260502163143 | 85 | 309 | 7.0 | 23.5 | 0.00 | 0.00 | 0.00 | 21 | 968.2 |
| 20260502162627 | 84 | 157 | 9.6 | 27.8 | 0.00 | 0.00 | 0.00 | 21 | 968.2 |
| 20260502162151 | 84 | 312 | 6.1 | 27.8 | 0.00 | 0.00 | 0.00 | 21 | 968.2 |
| 20260502161635 | 84 | 121 | 9.6 | 26.9 | 0.00 | 0.00 | 0.00 | 21 | 968.1 |
| 20260502161200 | 84 | 158 | 13.0 | 26.9 | 0.00 | 0.00 | 0.00 | 22 | 968.2 |
| 20260502160636 | 83 | 163 | 13.9 | 26.9 | 0.00 | 0.00 | 0.00 | 21 | 968.2 |
| 20260502160140 | 83 | 173 | 5.2 | 22.6 | 0.00 | 0.00 | 0.00 | 21 | 968.2 |
| 20260502152207 | 81 | 170 | 7.8 | 16.5 | 0.00 | 0.00 | 0.00 | 19 | 967.9 |
| 20260502151643 | 80 | 180 | 8.7 | 14.8 | 0.00 | 0.00 | 0.00 | 20 | 967.8 |
| 20260502151127 | 80 | 163 | 6.1 | 13.9 | 0.00 | 0.00 | 0.00 | 21 | 967.8 |
| 20260502150631 | 79 | 155 | 2.6 | 9.6 | 0.00 | 0.00 | 0.00 | 21 | 967.7 |
| 20260502150137 | 79 | 333 | 1.7 | 9.6 | 0.00 | 0.00 | 0.00 | 22 | 967.7 |
| 20260502140127 | 71 | 326 | 0.0 | 3.5 | 0.00 | 0.00 | 0.00 | 28 | 967.4 |
| 20260502130642 | 66 | 334 | 0.0 | 1.7 | 0.00 | 0.00 | 0.00 | 29 | 966.4 |
| 20260502130146 | 66 | 334 | 0.0 | 0.0 | 0.00 | 0.00 | 0.00 | 29 | 966.4 |
| 20260502123636 | 66 | 334 | 0.0 | 0.9 | 0.00 | 0.00 | 0.00 | 28 | 966.0 |
| 20260502123140 | 65 | 334 | 0.0 | 2.6 | 0.00 | 0.00 | 0.00 | 29 | 966.1 |
| 20260502122639 | 65 | 334 | 0.0 | 2.6 | 0.00 | 0.00 | 0.00 | 30 | 965.9 |
| 20260502122140 | 65 | 334 | 0.0 | 0.9 | 0.00 | 0.00 | 0.00 | 29 | 965.8 |
| 20260502121644 | 65 | 334 | 0.0 | 0.0 | 0.00 | 0.00 | 0.00 | 29 | 965.8 |
| 20260502121129 | 66 | 334 | 0.0 | 0.0 | 0.00 | 0.00 | 0.00 | 29 | 965.8 |
| 20260502120654 | 66 | 334 | 0.0 | 0.0 | 0.00 | 0.00 | 0.00 | 30 | 965.8 |
| 20260502120137 | 66 | 334 | 0.0 | 0.0 | 0.00 | 0.00 | 0.00 | 30 | 965.7 |
| 20260502115701 | 66 | 334 | 0.0 | 0.0 | 0.00 | 0.00 | 0.00 | 30 | 965.7 |
| 20260502115157 | 66 | 334 | 0.0 | 0.0 | 0.00 | 0.00 | 0.00 | 29 | 965.7 |
| 20260502114640 | 67 | 334 | 0.0 | 0.0 | 0.00 | 0.00 | 0.00 | 29 | 965.7 |
| 20260502114125 | 67 | 334 | 0.0 | 0.0 | 0.00 | 0.00 | 0.00 | 28 | 965.6 |
| 20260502113630 | 67 | 334 | 0.0 | 0.0 | 0.00 | 0.00 | 0.00 | 28 | 965.6 |
| 20260502113136 | 67 | 334 | 0.0 | 0.0 | 0.00 | 0.00 | 0.00 | 28 | 965.6 |
| 20260502112633 | 67 | 334 | 0.0 | 0.0 | 0.00 | 0.00 | 0.00 | 28 | 965.6 |
| 20260502112137 | 67 | 334 | 0.0 | 0.9 | 0.00 | 0.00 | 0.00 | 27 | 965.6 |
| 20260502111642 | 67 | 334 | 0.0 | 0.9 | 0.00 | 0.00 | 0.00 | 28 | 965.6 |
| 20260502111146 | 67 | 334 | 0.0 | 0.9 | 0.00 | 0.00 | 0.00 | 28 | 965.6 |
| 20260502110708 | 68 | 334 | 0.0 | 2.6 | 0.00 | 0.00 | 0.00 | 28 | 965.6 |
| 20260502110151 | 68 | 334 | 0.0 | 3.5 | 0.00 | 0.00 | 0.00 | 28 | 965.6 |
| 20260502105629 | 68 | 334 | 0.0 | 3.5 | 0.00 | 0.00 | 0.00 | 28 | 965.5 |
| 20260502105155 | 68 | 334 | 0.9 | 3.5 | 0.00 | 0.00 | 0.00 | 28 | 965.6 |
| 20260502104638 | 68 | 334 | 0.0 | 1.7 | 0.00 | 0.00 | 0.00 | 27 | 965.6 |
| 20260502104143 | 68 | 334 | 0.0 | 0.0 | 0.00 | 0.00 | 0.00 | 26 | 965.5 |
| 20260502103702 | 69 | 334 | 0.0 | 1.7 | 0.00 | 0.00 | 0.00 | 26 | 965.4 |
| 20260502103126 | 69 | 334 | 0.0 | 0.0 | 0.00 | 0.00 | 0.00 | 26 | 965.3 |
| 20260502102630 | 69 | 334 | 0.0 | 0.0 | 0.00 | 0.00 | 0.00 | 25 | 965.4 |
| 20260502102131 | 69 | 334 | 0.0 | 0.0 | 0.00 | 0.00 | 0.00 | 25 | 965.3 |
| 20260502101140 | 70 | 334 | 0.0 | 0.0 | 0.00 | 0.00 | 0.00 | 24 | 965.4 |
| 20260502100646 | 70 | 334 | 0.0 | 0.0 | 0.00 | 0.00 | 0.00 | 24 | 965.4 |
| 20260502100142 | 70 | 334 | 0.0 | 0.0 | 0.00 | 0.00 | 0.00 | 24 | 965.3 |
| 20260502091132 | 74 | 334 | 0.0 | 2.6 | 0.00 | 0.00 | 0.00 | 20 | 965.1 |
| 20260502090637 | 74 | 334 | 0.0 | 3.5 | 0.00 | 0.00 | 0.00 | 20 | 965.1 |
| 20260502090141 | 74 | 334 | 0.0 | 3.5 | 0.00 | 0.00 | 0.00 | 20 | 965.0 |
| 20260502071204 | 77 | 336 | 5.2 | 9.6 | 0.00 | 0.00 | 0.00 | 14 | 964.5 |
| 20260502070646 | 77 | 333 | 4.3 | 10.4 | 0.00 | 0.00 | 0.00 | 14 | 964.6 |
| 20260502070149 | 78 | 342 | 7.8 | 11.3 | 0.00 | 0.00 | 0.00 | 14 | 964.5 |
| 20260502065633 | 78 | 331 | 7.8 | 13.0 | 0.00 | 0.00 | 0.00 | 14 | 964.5 |
| 20260502065139 | 78 | 360 | 8.7 | 13.0 | 0.00 | 0.00 | 0.00 | 13 | 964.5 |
| 20260502064636 | 78 | 360 | 5.2 | 11.3 | 0.00 | 0.00 | 0.00 | 13 | 964.4 |
| 20260502064142 | 78 | 339 | 7.0 | 13.9 | 0.00 | 0.00 | 0.00 | 13 | 964.4 |
| 20260502063626 | 79 | 335 | 7.8 | 13.9 | 0.00 | 0.00 | 0.00 | 13 | 964.3 |
| 20260502063131 | 79 | 5 | 7.0 | 12.2 | 0.00 | 0.00 | 0.00 | 13 | 964.3 |
| 20260502062629 | 79 | 17 | 7.0 | 12.2 | 0.00 | 0.00 | 0.00 | 13 | 964.2 |
| 20260502062135 | 79 | 22 | 6.1 | 11.3 | 0.00 | 0.00 | 0.00 | 13 | 964.2 |
| 20260502061641 | 79 | 24 | 4.3 | 13.9 | 0.00 | 0.00 | 0.00 | 13 | 964.0 |
| 20260502061145 | 79 | 14 | 2.6 | 13.9 | 0.00 | 0.00 | 0.00 | 13 | 964.0 |
| 20260502060642 | 79 | 26 | 2.6 | 10.4 | 0.00 | 0.00 | 0.00 | 13 | 963.8 |
| 20260502060127 | 78 | 27 | 3.5 | 10.4 | 0.00 | 0.00 | 0.00 | 13 | 963.7 |
| 20260502055630 | 78 | 38 | 2.6 | 10.4 | 0.00 | 0.00 | 0.00 | 13 | 963.8 |
| 20260502055134 | 78 | 10 | 1.7 | 8.7 | 0.00 | 0.00 | 0.00 | 13 | 963.8 |
| 20260502054640 | 78 | 9 | 0.9 | 5.2 | 0.00 | 0.00 | 0.00 | 14 | 963.8 |
| 20260502054138 | 78 | 5 | 1.7 | 5.2 | 0.00 | 0.00 | 0.00 | 14 | 963.7 |
| 20260502053643 | 78 | 5 | 1.7 | 5.2 | 0.00 | 0.00 | 0.00 | 14 | 963.7 |
| 20260502053147 | 78 | 5 | 0.9 | 5.2 | 0.00 | 0.00 | 0.00 | 14 | 963.6 |
| 20260502052630 | 78 | 5 | 0.9 | 7.8 | 0.00 | 0.00 | 0.00 | 15 | 963.7 |
| 20260502052127 | 78 | 5 | 2.6 | 7.8 | 0.00 | 0.00 | 0.00 | 15 | 963.6 |
| 20260502051634 | 78 | 123 | 0.0 | 1.7 | 0.00 | 0.00 | 0.00 | 16 | 963.6 |
| 20260502051138 | 78 | 123 | 0.0 | 2.6 | 0.00 | 0.00 | 0.00 | 16 | 963.6 |
| 20260502050643 | 78 | 123 | 0.9 | 3.5 | 0.00 | 0.00 | 0.00 | 16 | 963.6 |
| 20260502050141 | 78 | 123 | 0.9 | 8.7 | 0.00 | 0.00 | 0.00 | 17 | 963.6 |
| 20260502045626 | 77 | 122 | 1.7 | 8.7 | 0.00 | 0.00 | 0.00 | 19 | 963.5 |
| 20260502045129 | 78 | 162 | 0.0 | 0.0 | 0.00 | 0.00 | 0.00 | 19 | 963.6 |
| 20260502044635 | 78 | 162 | 0.0 | 2.6 | 0.00 | 0.00 | 0.00 | 19 | 963.5 |
| 20260502044133 | 78 | 162 | 0.0 | 2.6 | 0.00 | 0.00 | 0.00 | 20 | 963.5 |
| 20260502043637 | 78 | 162 | 0.0 | 0.0 | 0.00 | 0.00 | 0.00 | 20 | 963.4 |
| 20260502043204 | 79 | 162 | 0.0 | 0.0 | 0.00 | 0.00 | 0.00 | 20 | 963.4 |
| 20260502042648 | 79 | 162 | 0.0 | 0.0 | 0.00 | 0.00 | 0.00 | 19 | 963.4 |
| 20260502042126 | 80 | 162 | 0.0 | 0.0 | 0.00 | 0.00 | 0.00 | 19 | 963.4 |
| 20260502041631 | 80 | 162 | 0.0 | 0.9 | 0.00 | 0.00 | 0.00 | 19 | 963.3 |
| 20260502041136 | 80 | 162 | 0.0 | 0.9 | 0.00 | 0.00 | 0.00 | 19 | 963.2 |
| 20260502040641 | 80 | 162 | 0.0 | 0.9 | 0.00 | 0.00 | 0.00 | 19 | 963.2 |
| 20260502040139 | 80 | 162 | 0.0 | 2.6 | 0.00 | 0.00 | 0.00 | 19 | 963.1 |
| 20260502035624 | 80 | 162 | 0.0 | 2.6 | 0.00 | 0.00 | 0.00 | 19 | 963.0 |
| 20260502035128 | 80 | 162 | 0.0 | 0.9 | 0.00 | 0.00 | 0.00 | 19 | 963.0 |
| 20260502034632 | 81 | 162 | 0.0 | 0.0 | 0.00 | 0.00 | 0.00 | 19 | 963.0 |
| 20260502034130 | 81 | 162 | 0.0 | 1.7 | 0.00 | 0.00 | 0.00 | 19 | 962.9 |
| 20260502033634 | 81 | 162 | 0.0 | 1.7 | 0.00 | 0.00 | 0.00 | 19 | 962.8 |
| 20260502033139 | 82 | 162 | 0.0 | 7.0 | 0.00 | 0.00 | 0.00 | 19 | 962.8 |
| 20260502032644 | 82 | 162 | 1.7 | 7.0 | 0.00 | 0.00 | 0.00 | 18 | 962.8 |
| 20260502032147 | 82 | 162 | 1.7 | 4.3 | 0.00 | 0.00 | 0.00 | 18 | 962.6 |
| 20260502031623 | 82 | 162 | 0.0 | 5.2 | 0.00 | 0.00 | 0.00 | 18 | 962.6 |
| 20260502031129 | 83 | 162 | 2.6 | 5.2 | 0.00 | 0.00 | 0.00 | 17 | 962.5 |
| 20260502030632 | 83 | 162 | 0.0 | 5.2 | 0.00 | 0.00 | 0.00 | 17 | 962.4 |
| 20260502030134 | 83 | 162 | 0.9 | 5.2 | 0.00 | 0.00 | 0.00 | 17 | 962.4 |
| 20260502025633 | 83 | 162 | 2.6 | 6.1 | 0.00 | 0.00 | 0.00 | 17 | 962.2 |
| 20260502025139 | 84 | 162 | 3.5 | 6.1 | 0.00 | 0.00 | 0.00 | 17 | 962.2 |
| 20260502024643 | 84 | 162 | 1.7 | 7.8 | 0.00 | 0.00 | 0.00 | 17 | 962.1 |
| 20260502024147 | 84 | 162 | 3.5 | 7.8 | 0.00 | 0.00 | 0.00 | 16 | 962.1 |
| 20260502023631 | 84 | 162 | 3.5 | 7.8 | 0.00 | 0.00 | 0.00 | 16 | 962.0 |
| 20260502023130 | 85 | 162 | 3.5 | 9.6 | 0.00 | 0.00 | 0.00 | 16 | 962.0 |
| 20260502022635 | 85 | 162 | 2.6 | 10.4 | 0.00 | 0.00 | 0.00 | 16 | 961.9 |
| 20260502022202 | 85 | 162 | 0.9 | 8.7 | 0.00 | 0.00 | 0.00 | 16 | 961.9 |
| 20260502021647 | 85 | 162 | 0.9 | 10.4 | 0.00 | 0.00 | 0.00 | 16 | 961.9 |
| 20260502021144 | 85 | 163 | 5.2 | 12.2 | 0.00 | 0.00 | 0.00 | 16 | 961.8 |
| 20260502020629 | 86 | 155 | 5.2 | 12.2 | 0.00 | 0.00 | 0.00 | 16 | 961.8 |
| 20260502020155 | 86 | 148 | 5.2 | 13.0 | 0.00 | 0.00 | 0.00 | 17 | 961.7 |
| 20260502015639 | 86 | 159 | 5.2 | 13.0 | 0.00 | 0.00 | 0.00 | 16 | 961.6 |
| 20260502015143 | 87 | 155 | 7.8 | 13.0 | 0.00 | 0.00 | 0.00 | 15 | 961.6 |
| 20260502014642 | 87 | 159 | 7.0 | 12.2 | 0.00 | 0.00 | 0.00 | 15 | 961.5 |
| 20260502014125 | 87 | 165 | 5.2 | 20.0 | 0.00 | 0.00 | 0.00 | 15 | 961.7 |
| 20260502013629 | 87 | 165 | 8.7 | 20.0 | 0.00 | 0.00 | 0.00 | 15 | 961.6 |
| 20260502013156 | 87 | 164 | 7.8 | 17.4 | 0.00 | 0.00 | 0.00 | 15 | 961.6 |
| 20260502012632 | 87 | 159 | 4.3 | 14.8 | 0.00 | 0.00 | 0.00 | 15 | 961.6 |
| 20260502012138 | 87 | 159 | 5.2 | 14.8 | 0.00 | 0.00 | 0.00 | 16 | 961.6 |
| 20260502011643 | 87 | 148 | 4.3 | 11.3 | 0.00 | 0.00 | 0.00 | 16 | 961.7 |
| 20260502011147 | 87 | 148 | 5.2 | 11.3 | 0.00 | 0.00 | 0.00 | 14 | 961.6 |
| 20260502010624 | 87 | 146 | 4.3 | 8.7 | 0.00 | 0.00 | 0.00 | 13 | 961.7 |
| 20260502010128 | 87 | 171 | 5.2 | 11.3 | 0.00 | 0.00 | 0.00 | 13 | 961.6 |
| 20260502005632 | 87 | 171 | 1.7 | 11.3 | 0.00 | 0.00 | 0.00 | 14 | 961.6 |
| 20260502005137 | 87 | 171 | 5.2 | 11.3 | 0.00 | 0.00 | 0.00 | 14 | 961.7 |
| 20260502004643 | 88 | 171 | 3.5 | 14.8 | 0.00 | 0.00 | 0.00 | 14 | 961.6 |
| 20260502004139 | 88 | 159 | 7.0 | 13.9 | 0.00 | 0.00 | 0.00 | 15 | 961.7 |
| 20260502003625 | 87 | 163 | 5.2 | 21.7 | 0.00 | 0.00 | 0.00 | 15 | 961.7 |
| 20260502003129 | 87 | 163 | 5.2 | 21.7 | 0.00 | 0.00 | 0.00 | 15 | 961.7 |
| 20260502002653 | 88 | 180 | 8.7 | 16.5 | 0.00 | 0.00 | 0.00 | 15 | 961.7 |
| 20260502002131 | 88 | 150 | 1.7 | 10.4 | 0.00 | 0.00 | 0.00 | 17 | 961.8 |
| 20260502001635 | 88 | 150 | 1.7 | 8.7 | 0.00 | 0.00 | 0.00 | 15 | 961.8 |
| 20260502001200 | 88 | 5 | 0.0 | 9.6 | 0.00 | 0.00 | 0.00 | 15 | 961.9 |
| 20260502000623 | 89 | 5 | 1.7 | 15.6 | 0.00 | 0.00 | 0.00 | 15 | 961.9 |
| 20260502000148 | 89 | 350 | 9.6 | 15.6 | 0.00 | 0.00 | 0.00 | 15 | 962.0 |
| 20260501235626 | 89 | 342 | 7.0 | 13.9 | 0.00 | 0.00 | 0.00 | 15 | 962.0 |
| 20260501235151 | 89 | 351 | 10.4 | 13.9 | 0.00 | 0.00 | 0.00 | 16 | 962.1 |
| 20260501234634 | 88 | 9 | 0.0 | 7.0 | 0.00 | 0.00 | 0.00 | 19 | 962.0 |
| 20260501234137 | 88 | 12 | 1.7 | 8.7 | 0.00 | 0.00 | 0.00 | 19 | 962.1 |
| 20260501233643 | 88 | 5 | 0.9 | 9.6 | 0.00 | 0.00 | 0.00 | 19 | 962.1 |
| 20260501233208 | 88 | 5 | 4.3 | 9.6 | 0.00 | 0.00 | 0.00 | 19 | 962.1 |
| 20260501232624 | 88 | 360 | 1.7 | 9.6 | 0.00 | 0.00 | 0.00 | 20 | 962.2 |
| 20260501232128 | 88 | 127 | 1.7 | 7.8 | 0.00 | 0.00 | 0.00 | 20 | 962.2 |
| 20260501231654 | 87 | 124 | 0.9 | 7.8 | 0.00 | 0.00 | 0.00 | 20 | 962.2 |
| 20260501231139 | 87 | 111 | 0.9 | 11.3 | 0.00 | 0.00 | 0.00 | 20 | 962.3 |
| 20260501230639 | 87 | 360 | 4.3 | 11.3 | 0.00 | 0.00 | 0.00 | 20 | 962.3 |
| 20260501230144 | 87 | 163 | 2.6 | 13.0 | 0.00 | 0.00 | 0.00 | 20 | 962.2 |
| 20260501225701 | 87 | 157 | 5.2 | 12.2 | 0.00 | 0.00 | 0.00 | 21 | 962.3 |
| 20260501225124 | 87 | 43 | 3.5 | 9.6 | 0.00 | 0.00 | 0.00 | 21 | 962.3 |
| 20260501224628 | 87 | 144 | 3.5 | 9.6 | 0.00 | 0.00 | 0.00 | 21 | 962.4 |
| 20260501224133 | 87 | 333 | 1.7 | 9.6 | 0.00 | 0.00 | 0.00 | 21 | 962.5 |
| 20260501223638 | 87 | 5 | 2.6 | 11.3 | 0.00 | 0.00 | 0.00 | 21 | 962.5 |
| 20260501223136 | 87 | 153 | 2.6 | 13.9 | 0.00 | 0.00 | 0.00 | 21 | 962.7 |
| 20260501222625 | 87 | 159 | 7.0 | 17.4 | 0.00 | 0.00 | 0.00 | 21 | 962.7 |
| 20260501222128 | 87 | 161 | 5.2 | 17.4 | 0.00 | 0.00 | 0.00 | 21 | 962.7 |
| 20260501221632 | 87 | 150 | 4.3 | 15.6 | 0.00 | 0.00 | 0.00 | 22 | 962.8 |
| 20260501221135 | 86 | 333 | 2.6 | 19.1 | 0.00 | 0.00 | 0.00 | 22 | 962.8 |
| 20260501220632 | 87 | 190 | 12.2 | 19.1 | 0.00 | 0.00 | 0.00 | 21 | 962.9 |
| 20260501220137 | 87 | 154 | 7.0 | 13.0 | 0.00 | 0.00 | 0.00 | 22 | 963.0 |
| 20260501215642 | 88 | 162 | 7.0 | 14.8 | 0.00 | 0.00 | 0.00 | 21 | 963.1 |
| 20260501215147 | 88 | 165 | 7.0 | 14.8 | 0.00 | 0.00 | 0.00 | 22 | 963.1 |
| 20260501214625 | 88 | 154 | 5.2 | 13.9 | 0.00 | 0.00 | 0.00 | 22 | 963.2 |
| 20260501214129 | 88 | 360 | 4.3 | 8.7 | 0.00 | 0.00 | 0.00 | 22 | 963.4 |
| 20260501213631 | 88 | 155 | 0.9 | 8.7 | 0.00 | 0.00 | 0.00 | 22 | 963.4 |
| 20260501213157 | 88 | 155 | 6.1 | 14.8 | 0.00 | 0.00 | 0.00 | 22 | 963.5 |
| 20260501212641 | 88 | 157 | 5.2 | 17.4 | 0.00 | 0.00 | 0.00 | 21 | 963.5 |
| 20260501212140 | 88 | 163 | 3.5 | 15.6 | 0.00 | 0.00 | 0.00 | 21 | 963.5 |
| 20260501211624 | 89 | 146 | 2.6 | 9.6 | 0.00 | 0.00 | 0.00 | 21 | 963.8 |
| 20260501211128 | 89 | 120 | 1.7 | 11.3 | 0.00 | 0.00 | 0.00 | 21 | 963.8 |
| 20260501210632 | 88 | 355 | 2.6 | 11.3 | 0.00 | 0.00 | 0.00 | 21 | 963.8 |
| 20260501210153 | 88 | 46 | 2.6 | 10.4 | 0.00 | 0.00 | 0.00 | 22 | 963.9 |
| 20260501205637 | 87 | 165 | 3.5 | 10.4 | 0.00 | 0.00 | 0.00 | 23 | 964.0 |
| 20260501205136 | 86 | 159 | 2.6 | 15.6 | 0.00 | 0.00 | 0.00 | 23 | 964.1 |
| 20260501204624 | 86 | 188 | 7.0 | 15.6 | 0.00 | 0.00 | 0.00 | 23 | 964.1 |
| 20260501204127 | 86 | 171 | 3.5 | 23.5 | 0.00 | 0.00 | 0.00 | 23 | 964.1 |
| 20260501203632 | 86 | 166 | 5.2 | 23.5 | 0.00 | 0.00 | 0.00 | 22 | 964.2 |
| 20260501203137 | 89 | 161 | 4.3 | 10.4 | 0.00 | 0.00 | 0.00 | 21 | 964.2 |
| 20260501202634 | 90 | 342 | 0.9 | 10.4 | 0.00 | 0.00 | 0.00 | 20 | 964.3 |
| 20260501202139 | 90 | 360 | 5.2 | 10.4 | 0.00 | 0.00 | 0.00 | 20 | 964.4 |
| 20260501201623 | 88 | 13 | 0.0 | 7.8 | 0.00 | 0.00 | 0.00 | 22 | 964.4 |
| 20260501201148 | 87 | 16 | 3.5 | 10.4 | 0.00 | 0.00 | 0.00 | 22 | 964.6 |
| 20260501200626 | 86 | 150 | 4.3 | 9.6 | 0.00 | 0.00 | 0.00 | 23 | 964.8 |
| 20260501200130 | 86 | 138 | 0.9 | 15.6 | 0.00 | 0.00 | 0.00 | 23 | 964.7 |
| 20260501195634 | 86 | 126 | 2.6 | 17.4 | 0.00 | 0.00 | 0.00 | 23 | 964.8 |
| 20260501195137 | 86 | 152 | 5.2 | 17.4 | 0.00 | 0.00 | 0.00 | 22 | 964.8 |